RH
66 68 66 64 64 68 65 68 68 67 72 73 72 70 69 69 71 77 79 74 74 71 73 73 72 75 68 75 68 86 62 63 61 52 63 62 72 72 68 72 65 64 60
67 70 68 66 64 58 64 65 68 70 69 73 72 73 74 71 73 76 74 64 72 72 71 70 68 56 73 80 82 82 88 77 64 74 64 57 71 73 74 82 68 57 58
66 65 65 63 63 59 58 62 67 70 70 63 71 74 75 71 76 74 74 73 69 70 71 71 73 74 75 65 71 65 60 64 70 66 62 60 60 63 69 76 76 70 60
67 64 66 64 61 58 60 64 65 69 70 68 69 72 73 70 70 70 69 69 67 65 70 70 68 71 75 76 69 76 78 74 69 69 62 60 61 64 67 63 61 66 58
76 75 72 70 67 67 68 68 68 70 68 68 69 70 69 63 54 72 70 68 74 71 69 72 67 74 84 81 64 73 78 80 59 63 65 61 62 65 77 59 63 59 61
78 75 80 80 77 76 75 75 76 75 76 74 73 71 70 55 70 85 77 67 70 75 70 68 71 82 86 93 95 94 91 82 78 63 58 63 73 68 59 61 61 64 60
79 79 82 84 84 81 78 78 78 79 76 79 75 74 75 72 85 92 91 66 76 70 70 68 63 51 76 71 89 95 96 96 94 82 80 71 73 73 74 77 73 69 64
80 80 80 84 85 83 82 81 81 77 79 78 76 78 77 74 95 93 94 74 74 67 71 72 73 69 69 81 77 74 74 76 77 68 84 74 75 74 81 75 81 79 70
77 78 79 79 80 83 85 84 81 81 84 82 76 81 84 81 98 97 95 76 71 75 70 71 74 77 84 96 79 75 76 80 92 99 99 100 100 100 90 78 88 94 87
74 75 76 78 80 80 83 84 84 81 82 81 77 78 84 86 97 100 97 86 86 73 76 77 98 81 100 100 84 77 79 73 81 78 81 90 92 93 100 94 95 98 96
80 78 76 77 79 80 82 81 82 88 86 86 86 80 84 82 77 100 100 92 81 82 76 68 66 100 100 100 100 79 78 74 83 84 69 77 82 91 81 80 87 94 98
76 76 85 84 76 68 83 81 84 83 87 87 89 83 76 85 98 99 100 100 96 82 81 79 89 100 100 100 99 100 100 96 75 70 75 84 88 82 74 70 79 77 74
78 75 78 79 89 84 83 82 80 84 74 78 81 77 72 91 96 100 100 100 100 88 83 93 100 100 100 95 100 100 99 74 71 70 71 76 78 66 72 71 78 78 80
79 77 79 83 83 82 90 88 87 83 80 69 74 80 73 91 95 95 93 94 99 95 94 89 94 96 98 87 81 78 68 67 66 66 69 69 64 61 61 63 63 72 62
80 74 72 65 75 70 81 97 94 79 75 71 70 75 79 89 86 95 95 93 85 82 91 92 96 95 92 86 73 68 66 64 64 66 63 62 62 61 63 64 73 74 72
71 64 62 60 62 65 94 99 99 100 100 100 100 80 73 93 100 100 100 100 100 100 85 86 92 87 88 85 71 66 62 71 62 61 60 59 59 60 62 64 68 60 59
77 72 64 74 63 77 98 97 99 100 100 100 100 100 100 99 100 100 100 100 100 99 70 79 72 75 80 70 65 58 59 60 71 58 57 57 58 58 62 59 59 57 56
75 92 70 72 75 85 96 98 98 92 98 97 98 98 100 100 100 100 100 98 94 96 67 65 67 68 69 66 59 55 56 61 57 56 54 53 53 52 56 55 52 54 52
78 76 78 82 95 97 97 96 97 95 93 86 92 96 96 100 100 100 100 68 68 74 68 62 61 62 63 59 56 56 59 56 55 54 52 52 51 50 53 50 48 71 68
74 88 91 94 98 98 98 97 98 96 91 81 70 70 91 91 83 88 89 75 63 58 60 62 62 60 59 58 59 58 58 60 60 55 51 51 50 47 45 48 46 47 49
68 63 79 73 84 96 99 98 98 96 91 74 58 67 90 66 63 67 70 69 64 58 61 62 61 60 60 60 59 58 54 52 53 52 51 53 52 48 47 46 44 45 45
78 64 70 75 77 89 97 99 98 92 66 59 51 69 100 60 54 57 59 59 58 58 53 60 58 58 56 56 59 56 53 53 56 55 58 59 53 51 45 43 42 44 46
84 70 71 80 82 93 99 98 98 90 63 55 51 60 77 59 53 53 54 53 54 55 56 58 58 54 53 55 55 54 51 53 57 64 62 59 57 52 49 45 42 43 45
88 78 74 80 95 96 98 99 98 99 86 59 54 54 55 55 53 54 52 51 52 52 53 55 55 52 54 56 56 54 52 52 52 55 60 61 53 60 50 49 43 43 42
88 95 91 83 96 99 99 98 97 93 84 70 59 55 53 54 53 52 51 52 53 52 50 50 50 51 53 54 52 53 66 88 69 68 61 66 61 66 58 47 47 44 46
75 85 92 98 97 96 93 93 89 75 66 62 60 57 56 56 53 53 53 52 53 52 53 50 50 53 53 50 55 74 100 100 85 100 63 61 64 70 63 54 50 46 49
Wind_Speed
17 15 15 14 14 13 11 10 9 8 7 7 8 7 7 7 8 7 9 7 6 5 5 4 4 4 4 1 3 3 4 4 5 3 1 2 3 3 3 2 4 5 5
15 15 16 14 13 14 14 13 11 10 9 8 8 9 8 8 8 8 9 7 7 7 6 6 5 4 5 3 3 5 4 4 5 6 3 2 4 2 4 4 4 4 5
15 15 15 15 15 15 15 13 12 11 10 10 9 9 10 9 9 9 8 7 8 8 7 7 6 6 5 4 5 5 5 4 5 5 6 3 3 3 3 4 5 5 6
15 15 16 16 16 15 14 13 13 13 12 12 11 10 9 8 9 9 8 9 8 8 8 8 7 7 8 6 6 6 6 6 6 6 6 6 5 3 4 5 5 5 5
14 14 16 14 14 13 14 13 13 13 13 12 12 11 11 10 9 10 10 10 10 9 9 9 9 9 8 8 6 7 7 7 7 6 6 6 6 6 6 4 5 5 6
15 15 11 12 13 14 13 13 13 13 13 13 14 13 13 10 10 11 10 9 10 10 10 10 10 9 11 12 12 12 9 9 9 8 8 8 9 7 6 7 6 6 7
15 14 13 12 12 13 13 13 14 14 13 14 15 14 13 14 12 14 14 10 9 10 11 10 10 9 9 10 11 13 12 14 13 9 11 10 9 8 6 7 8 7 8
13 14 14 13 13 13 13 14 13 12 13 13 13 14 13 12 13 15 15 12 11 13 12 12 11 11 10 10 9 9 10 11 13 11 12 11 9 7 6 6 7 7 7
13 14 15 15 14 14 14 14 12 12 12 12 12 13 14 12 12 12 11 10 11 12 12 11 10 10 9 5 9 11 12 11 6 7 6 6 2 3 5 4 5 5 5
11 12 14 14 15 15 14 14 11 13 13 10 12 13 14 13 13 12 10 6 8 8 9 10 8 9 4 6 9 10 11 11 8 8 6 4 4 4 3 4 2 4 4
5 9 11 12 14 15 13 11 12 12 10 12 13 12 14 14 10 9 11 9 7 6 6 7 6 7 6 7 10 10 11 7 3 5 5 5 3 4 3 2 2 1 2
6 7 8 11 11 10 13 12 13 12 12 12 12 11 11 10 7 10 12 13 7 7 5 4 2 5 3 1 6 7 5 5 5 4 4 4 4 3 0 2 2 4 3
8 7 8 6 7 11 12 13 11 13 12 11 10 10 9 7 6 8 9 8 4 5 4 4 8 9 8 6 4 5 6 4 4 5 4 2 1 2 1 1 1 2 1
9 9 7 7 6 9 8 9 9 10 12 12 11 10 9 7 6 5 4 4 5 3 5 4 4 5 2 6 6 6 3 2 2 2 3 3 3 2 3 3 2 2 1
9 9 9 7 6 8 8 4 8 13 13 12 12 11 11 9 10 10 9 8 7 7 7 5 4 4 4 3 3 3 2 3 4 4 5 5 5 4 4 3 3 2 3
9 9 8 6 6 8 5 3 9 8 4 4 8 11 9 2 11 14 14 11 10 16 6 6 6 6 6 6 6 5 4 4 4 5 5 4 4 4 5 4 4 3 4
11 11 9 8 9 10 8 8 7 2 5 5 6 10 10 11 10 14 13 10 11 10 7 7 8 8 8 7 6 6 6 6 7 7 6 5 4 5 5 5 4 4 4
14 13 10 10 10 9 8 9 8 10 10 8 6 3 7 10 11 14 15 12 5 5 9 8 8 8 8 7 6 7 7 7 6 6 6 6 6 6 5 5 4 5 4
12 10 11 10 7 7 7 8 8 9 9 10 7 3 8 10 9 10 12 10 10 10 10 9 9 9 8 8 8 7 8 8 7 7 6 6 6 5 5 6 5 2 3
11 11 9 6 4 5 6 8 8 8 8 9 10 10 8 7 8 8 8 9 10 10 10 10 9 9 9 8 8 8 8 8 8 8 7 7 6 6 7 7 6 6 6
8 9 7 5 5 6 5 6 7 8 8 10 10 11 16 11 11 10 10 10 10 9 9 10 9 9 9 9 9 8 8 8 8 8 7 7 7 7 8 7 7 6 5
8 9 8 8 7 7 6 4 4 4 7 9 8 8 14 8 8 8 9 9 9 8 7 9 9 9 9 10 10 10 10 10 9 10 9 8 9 9 8 8 8 7 6
7 8 8 7 9 7 5 4 3 3 7 8 9 9 11 9 8 8 8 8 8 8 8 8 9 9 8 9 10 10 11 11 11 10 10 10 10 9 9 10 9 9 8
6 7 7 7 5 3 5 5 5 6 8 9 9 9 9 8 8 8 7 7 7 8 9 8 9 11 9 9 9 10 10 10 9 11 14 11 11 10 9 10 10 11 10
4 5 5 5 7 5 5 6 7 8 11 10 9 8 8 8 8 8 8 8 8 9 10 10 9 11 13 15 14 14 11 11 12 10 10 12 14 13 11 10 11 11 12
4 6 5 3 3 4 5 6 7 8 9 7 7 7 7 8 9 9 9 9 9 9 10 9 11 16 15 15 18 17 11 12 13 13 12 11 12 11 11 14 16 11 12
Wind_Direction
198 202 207 213 212 212 215 215 211 212 204 200 191 192 217 233 234 227 230 231 230 235 227 256 260 246 261 245 242 234 226 238 278 293 269 331 285 275 217 237 242 240 237
195 200 205 207 213 217 218 215 214 216 208 205 195 187 204 221 232 228 233 220 230 243 241 227 250 250 252 243 231 241 233 216 264 272 313 262 254 261 266 242 231 241 256
195 198 207 207 209 220 222 220 218 213 216 206 215 219 205 209 216 225 228 230 231 229 237 234 229 220 228 236 242 245 238 228 223 252 272 255 270 248 231 242 248 252 247
199 198 206 209 209 209 218 220 224 219 218 216 211 221 225 214 214 222 228 235 240 235 232 235 240 236 242 241 237 234 238 243 236 247 259 269 269 267 270 270 244 226 257
208 204 203 208 209 211 207 212 223 232 228 230 224 222 232 238 227 213 218 221 233 239 238 236 236 240 240 246 249 230 229 237 244 239 251 259 257 248 255 274 269 284 261
213 216 209 196 203 209 210 208 214 226 231 233 236 233 233 238 222 205 216 225 229 234 243 245 250 229 236 233 237 253 253 237 238 250 252 249 256 252 254 253 262 264 285
215 214 206 200 198 207 207 207 212 220 226 230 234 234 232 230 209 205 208 232 230 242 247 247 249 249 224 250 229 230 238 237 242 246 253 258 271 264 272 256 251 260 266
220 215 212 205 205 203 203 210 213 215 219 230 233 230 230 227 202 207 201 223 230 234 243 244 247 258 253 248 252 259 252 241 231 232 239 253 241 264 253 267 281 278 270
227 223 216 212 215 208 207 212 211 210 213 219 230 231 227 232 204 214 195 211 223 225 224 237 235 240 255 223 256 262 265 264 221 243 279 316 325 277 280 276 251 253 268
243 235 227 215 216 217 217 209 207 208 215 206 222 228 225 223 201 192 191 216 216 223 215 222 198 241 230 208 243 255 258 259 247 200 199 195 200 139 177 247 277 248 262
286 253 240 229 227 223 219 215 208 206 223 214 216 224 229 227 216 167 205 219 216 216 207 214 220 175 230 214 221 248 251 276 222 239 223 222 197 147 126 80 52 313 286
259 261 253 243 233 233 225 219 218 215 215 216 222 221 222 219 219 176 180 233 183 203 194 209 201 106 133 245 213 239 212 211 235 228 212 201 175 179 190 316 311 294 288
280 268 249 250 246 234 238 231 218 215 216 214 214 218 216 207 188 162 182 188 180 186 176 131 117 131 137 119 108 145 185 213 213 216 206 161 123 57 17 112 13 333 61
275 271 260 236 231 235 224 224 216 219 219 206 198 206 199 197 180 166 185 180 133 143 125 125 143 141 95 121 164 178 165 191 211 194 138 132 114 118 91 51 50 61 162
252 258 258 253 248 252 234 248 218 224 224 202 192 191 189 194 197 182 186 186 184 176 151 138 146 147 154 171 194 180 163 164 161 146 150 143 137 134 108 105 78 64 96
260 247 246 251 240 245 226 200 25 22 326 227 167 184 184 195 158 170 184 192 165 149 168 176 179 188 184 192 199 178 170 166 143 144 139 141 141 143 134 124 147 129 98
254 265 260 250 251 232 200 199 201 46 47 34 125 143 166 170 173 163 163 151 155 158 202 196 193 192 193 196 188 181 169 160 157 158 151 150 154 139 180 144 137 126 103
255 246 251 251 246 233 206 203 201 186 192 169 54 105 128 140 142 140 138 126 156 237 216 197 195 190 191 188 180 175 165 164 171 167 166 166 172 170 162 154 150 133 129
241 236 229 234 222 202 198 209 196 191 191 161 127 65 94 103 120 144 167 198 196 203 215 202 194 184 183 183 185 182 177 177 174 175 176 181 177 184 176 169 145 134 164
227 229 220 201 180 184 195 202 184 187 182 176 172 171 151 141 164 176 197 222 220 213 200 210 196 183 180 184 182 183 184 175 179 186 186 185 190 193 186 185 188 184 195
225 206 205 201 205 198 186 188 186 175 180 176 183 172 176 186 183 184 192 207 222 215 212 210 196 187 177 180 185 193 195 185 189 193 188 189 197 209 209 199 198 202 207
216 215 203 220 212 201 171 162 141 156 176 168 171 159 178 210 186 189 195 206 212 215 210 202 204 192 185 186 193 197 204 202 192 188 192 202 195 206 209 214 211 211 216
211 209 209 211 203 189 122 108 148 224 193 189 178 158 184 196 193 190 195 203 203 202 206 200 203 201 201 201 209 210 211 206 203 196 198 204 203 205 207 212 214 217 220
208 215 199 198 171 155 129 147 198 214 216 201 187 183 185 192 194 197 200 199 200 207 210 205 210 216 204 214 211 215 215 216 208 202 204 202 216 198 219 216 219 223 233
188 188 208 188 160 156 143 185 206 199 215 201 195 192 189 196 205 204 202 200 202 208 208 210 213 221 221 226 235 226 218 195 215 206 200 207 214 206 212 221 219 223 230
180 172 175 165 154 165 189 198 211 208 204 182 186 187 191 206 212 212 209 205 206 210 215 209 213 221 224 224 226 228 206 199 205 217 216 213 211 204 204 219 226 226 230